Flag for U.S.A. Weather past 2 weeks in Ontario, California, U.S.A.

Now
46 °F

Passing clouds.


Feels Like: 46 °F
Forecast: 49 / 70 °F
Wind: No wind

Location: Ontario International Airport

Current Time: Dec 21, 2014 at 4:50:50 AM

Latest Report: Dec 21, 2014 at 3:53 AM


Visibility: 7 mi

Pressure: 30.11 "Hg

Humidity: 89%

Dew point: 43 °F

Location of OntarioLocation

Historic Weather in Ontario — Graph

°F

Ontario temperature yesterday

Maximum temperature yesterday: 58 °F (at 11:53 AM)
Minimum temperature yesterday: 47 °F (at 3:53 AM)
Average temperature yesterday: 53 °F

Past Weeks' High & Low Weather Summary

 TemperatureHumidityPressure
High77 °F (Dec 8, 1:53 PM)97% (Dec 6, 7:00 AM)30.24 "Hg (Dec 6, 7:00 AM)
Low43 °F (Dec 14, 6:53 AM)23% (Dec 9, 3:53 PM)29.82 "Hg (Dec 12, 4:53 AM)
Average57 °F69%30.06 "Hg
* Reported Dec 6 2:53 AM — Dec 21 2:53 AM, Ontario, Weather by CustomWeather, © 2014

Note: Actual official high and low records may vary slightly from our data, if they occured in-between our weather recording intervals... More about our weather records

Advertising

Ontario weather history for previous 24 hours

 ConditionsComfort  
Time TempWeatherWind HumidityBarometerVisibility
2:53 AM
Dec 21
48 °FFog.No wind86%30.13 "Hg6 mi
1:53 AM49 °FPassing clouds.No wind84%30.14 "Hg6 mi
12:53 AM48 °FFog.6 mph86%30.15 "Hg6 mi
11:53 PM
Dec 20
51 °FHaze.No wind80%30.15 "Hg6 mi
10:53 PM50 °FPassing clouds.No wind80%30.16 "Hg6 mi
9:53 PM51 °FPartly cloudy.3 mph80%30.15 "Hg6 mi
8:53 PM52 °FPassing clouds.No wind80%30.16 "Hg7 mi
7:53 PM53 °FPassing clouds.No wind77%30.15 "Hg6 mi
6:53 PM54 °FPassing clouds.No wind77%30.14 "Hg8 mi
5:53 PM55 °FPassing clouds.3 mph74%30.15 "Hg8 mi
4:53 PM57 °FPassing clouds.3 mph69%30.14 "Hg7 mi
3:53 PM58 °FBroken clouds.3 mph67%30.12 "Hg8 mi
2:53 PM58 °FPartly sunny.5 mph67%30.11 "Hg9 mi
1:53 PM58 °FPartly sunny.3 mph65%30.12 "Hg6 mi
12:53 PM58 °FPartly sunny.No wind62%30.14 "Hg8 mi
11:53 AM58 °FPartly sunny.No wind65%30.14 "Hg8 mi
10:53 AM57 °FPartly sunny.No wind62%30.18 "Hg8 mi
9:53 AM55 °FPartly sunny.No wind64%30.20 "Hg10 mi
8:53 AM51 °FPartly sunny.No wind80%30.19 "Hg9 mi
7:53 AM48 °FPartly sunny.No wind80%30.18 "Hg10 mi
6:53 AM48 °FPartly sunny.No wind80%30.17 "Hg10 mi
5:53 AM48 °FPartly cloudy.No wind80%30.15 "Hg10 mi
4:53 AM47 °FPassing clouds.No wind83%30.12 "Hg10 mi
Weather by CustomWeather, © 2014

See weather overviewHow to use our weather pages